Regional Weather Roundup
Issued by NWS

Home | Current Version | Previous Version | Graphics & Text | Print | Product List | Glossary Off
Versions: 1 2 3 4 5 6 7 8 9 10 11 12 13 14 15 16 17 18 19 20 21 22 23 24 25 26 27 28 29 30 31 32 33 34 35 36 37 38 39 40 41 42 43 44 45 46 47 48 49 50

000
ASUS45 KBOU 300807
RWRCO

WEATHER ROUNDUP FOR COLORADO
NATIONAL WEATHER SERVICE DENVER/BOULDER CO
200 AM MDT SAT AUG 30 2014

NOTE: "FAIR" INDICATES FEW OR NO CLOUDS BELOW 12000 FEET WITH NO
SIGNIFICANT WEATHER AND/OR OBSTRUCTIONS TO VISIBILITY.

COZ001>005-013-030-031-300900-
...NORTHWEST COLORADO...

CITY           SKY/WX    TMP DP  RH WIND       PRES   REMARKS
CRAIG          CLEAR     51  47  86 CALM      30.18S
HAYDEN         CLEAR     54  45  71 SE13      30.20F
MEEKER         CLEAR     52  44  74 E9        30.20F
MOUNT WERNER   NOT AVBL
STEAMBOAT SPGS CLEAR     49  44  84 CALM      30.24S
WALDEN         CLEAR     43  36  75 SE7       30.31R
$$

COZ006>008-011-300900-
...WEST CENTRAL VALLEYS...

CITY           SKY/WX    TMP DP  RH WIND       PRES   REMARKS
GRAND JUNCTION PTCLDY    62  49  62 SE9       30.09S
MONTROSE       MOCLDY    61  44  53 SE9       30.19S
EAGLE          CLEAR     48  45  87 CALM      30.28S
RIFLE          CLEAR     56  48  74 CALM      30.17S
DELTA          MOCLDY    61  46  56 NE3       30.14F
NUCLA          MOCLDY    59  43  55 E8        30.20S
$$

COZ017>023-064>068-300900-
...SOUTHWEST COLORADO...

CITY           SKY/WX    TMP DP  RH WIND       PRES   REMARKS
DURANGO        CLEAR     53  42  66 N3        30.21F
CORTEZ         CLEAR     51  45  79 E5        30.18F
PAGOSA SPRINGS CLEAR     54  37  52 CALM      30.29F
TELLURIDE      PTCLDY    48  39  71 SE5       30.39F
WOLF CREEK PAS CLEAR     41  34  75 NE7       30.57S
$$

COZ009-010-012-014-032>034-037-058>063-300900-
...CENTRAL COLORADO...

CITY           SKY/WX    TMP DP  RH WIND       PRES   REMARKS
ASPEN          CLEAR     49  40  71 SW7       30.31F
BUENA VISTA    CLEAR     42  38  86 N3        30.36F
COPPER MTN     CLEAR     45  32  61 SW3       30.57S
BERTHOUD PASS  FAIR      37  36  93 W16G24    30.58F
COTTONWOOD PAS CLEAR     50  32  50 NW5       30.45F
GUNNISON       PTCLDY    46  39  76 NE3       30.35S
KREMMLING      CLEAR     43  39  87 CALM      30.32S
LEADVILLE      CLEAR     35  33  92 CALM      30.45S
MONARCH PASS   PTCLDY    43  30  61 W12       30.67F
SALIDA         CLEAR     49  42  77 NW8       30.41F
SUNLIGHT       CLEAR     50  39  66 CALM      30.50F
WILKERSON PASS NOT AVBL
$$

COZ069>075-300900-
...SAN LUIS VALLEY/SANGRE DE CRISTO MOUNTAINS...

CITY           SKY/WX    TMP DP  RH WIND       PRES   REMARKS
ALAMOSA        PTCLDY    55  42  61 E7        30.30F
LA VETA PASS   NOT AVBL
SAGUACHE       NOT AVBL
$$

COZ035-036-038>040-300900-
...NORTHERN COLORADO FRONT RANGE...

CITY           SKY/WX    TMP DP  RH WIND       PRES   REMARKS
DENVER INTL AP PTCLDY    57  45  64 SW6       30.13F
DMNS CITY PARK   N/A     59  45  60 S3        30.12F
AURORA         PTCLDY    58  44  59 S13       30.15F
FRONT RANGE AP PTCLDY    57  48  72 S6        30.15S
ERIE MUNI ARPT CLEAR     50  48  92 S3        30.12F
BOULDER MUN AP CLEAR     57  45  62 S5        30.12F
CENTENNIAL     PTCLDY    60  42  51 SW10      30.16F
BROOMFIELD     CLEAR     55  43  62 SE3       30.15S
FORT COLLINS   PTCLDY    55  52  88 CALM      30.12F
LONGMONT       PTCLDY    54  47  77 CALM      30.13S
$$

COZ041-046-047-076>085-087-088-300900-
...PIKES PEAK/PALMER DIVIDE AND SOUTHERN FOOTHILLS...

CITY           SKY/WX    TMP DP  RH WIND       PRES   REMARKS
COLO. SPRINGS  PTCLDY    54  46  74 N5        30.22S
A. F. ACADEMY  CLEAR     50  45  82 NE10      30.22F
ELLICOTT       CLEAR     55  48  77 CALM      30.21S
FALCON         CLEAR     51  45  80 CALM      30.26S
FORT CARSON    CLEAR     56  46  69 W5        30.19F
LIMON          MOCLDY    53  49  86 CALM      30.16F
MONUMENT HILL  CLEAR     52  39  62 SW12      30.24S
TRINIDAD       CLOUDY    61  49  64 SW13      30.24F
$$

COZ042>045-048>051-090-091-300900-
...NORTHEAST COLORADO...

CITY           SKY/WX    TMP DP  RH WIND       PRES   REMARKS
GREELEY ARPT   PTCLDY    54  46  76 E5        30.12S
AKRON          PTCLDY    58  52  80 S8        30.12F
BURLINGTON     PTCLDY    57  54  89 NW7       30.09F
WRAY             N/A     60  57  91 NW3       30.07F
STERLING       PTCLDY    59  55  88 SW5       30.08F
HOLYOKE        PTCLDY    61  57  88 W3        30.07F
FORT MORGAN    PTCLDY    58  50  74 S3        30.12F
$$

COZ086-089-092>099-300900-
...SOUTHEAST COLORADO...

CITY           SKY/WX    TMP DP  RH WIND       PRES   REMARKS
PUEBLO         PTCLDY    64  45  49 W7        30.14S
LA JUNTA       CLOUDY    64  53  67 S5        30.12R
LAMAR          MOCLDY    63  53  70 SW5       30.07R
SPRINGFIELD      N/A     58  53  84 SW6       30.13F
$$



USA.gov is the U.S. government's official web portal to all federal, state and local government web resources and services.